GFSMA_850_rhum_060.txt.gz
RH
86 81 79 78 78 84 82 81 82 82 79 70 68 64 64 69 69 66 62 60 58 52 49 49 56 64 66 66 62 56 45 37 64 97 95 82 75 80 86 94 88 76 56
75 74 76 75 78 79 77 72 48 38 34 34 38 42 40 40 43 44 44 40 39 50 47 54 60 61 68 68 65 61 50 43 41 57 96 94 98 85 90 92 92 94 89
61 66 74 74 72 62 38 36 32 32 30 28 25 20 19 28 29 26 22 21 41 47 57 70 73 75 74 75 76 72 78 70 66 51 40 41 50 40 47 66 80 94 97
58 66 63 43 38 38 34 35 38 35 29 25 23 22 24 26 31 36 46 53 48 53 82 78 72 68 69 71 80 90 96 92 71 54 44 41 52 46 32 28 30 51 84
38 39 43 42 42 45 49 50 41 32 33 32 34 35 36 29 31 45 49 55 57 74 78 79 68 68 68 74 78 82 87 66 79 65 61 44 38 30 30 33 30 28 38
44 44 46 47 53 55 58 47 31 31 33 36 37 40 41 40 38 34 49 52 50 51 57 56 54 66 65 62 78 84 83 89 92 96 63 57 49 42 37 32 30 54 44
48 50 53 59 61 59 46 35 36 31 28 36 40 51 51 50 47 51 47 43 44 44 51 55 56 56 63 68 71 72 70 66 88 86 80 59 49 48 47 68 46 46 85
56 60 63 60 52 45 39 40 35 30 30 47 57 63 66 56 60 56 66 64 54 53 52 52 59 62 61 63 65 71 67 68 74 80 83 86 83 89 82 93 90 88 75
64 69 64 56 52 47 40 39 43 50 57 62 69 71 74 71 70 66 59 66 63 60 58 54 55 60 60 60 58 55 49 52 69 77 76 87 86 85 87 86 86 83 84
67 59 59 56 53 52 44 50 60 62 64 63 65 70 71 76 72 83 79 85 80 62 61 60 59 57 60 53 52 52 50 51 73 75 73 84 84 85 87 86 84 82 82
67 60 56 54 53 52 54 60 62 64 63 57 63 72 76 73 73 75 92 95 91 76 67 60 59 55 50 42 47 55 50 49 60 56 70 83 81 81 80 80 81 79 77
65 57 55 52 52 53 58 62 64 56 48 60 66 66 69 76 76 82 85 95 96 83 69 66 60 53 50 47 45 51 53 49 52 65 81 80 80 78 75 77 74 74 73
57 55 66 74 57 59 60 57 46 38 38 49 54 61 80 84 87 86 90 88 99 80 82 81 72 64 56 51 54 57 53 51 52 52 53 54 58 68 76 76 75 74 71
64 76 75 62 56 59 41 26 21 22 32 48 55 78 83 82 81 82 88 99 98 95 78 83 78 70 60 58 63 62 61 57 53 53 55 57 58 69 79 78 78 77 74
66 57 59 52 48 31 26 23 23 34 55 66 71 77 78 81 84 78 91 97 100 97 87 88 83 74 71 70 69 68 67 66 64 63 65 64 61 64 78 77 76 79 79
57 47 46 40 37 36 34 29 41 60 68 73 70 73 89 88 96 94 91 94 98 98 97 91 79 74 72 70 66 57 54 63 65 66 65 61 57 61 83 82 80 79 80
45 42 40 44 47 43 47 39 60 67 69 72 61 57 78 89 93 93 94 98 92 89 89 79 72 67 56 43 38 37 40 51 62 66 64 60 64 71 76 78 80 80 75
44 44 48 50 47 56 49 66 71 72 76 76 60 57 67 88 91 91 86 88 86 77 72 68 60 47 42 41 39 45 47 60 66 67 71 77 77 76 73 69 71 69 79
48 50 42 44 61 57 59 72 76 78 76 71 72 68 70 80 92 88 83 76 72 70 63 65 56 51 44 37 50 64 67 68 66 68 71 70 64 61 61 62 62 61 60
33 38 34 54 61 63 69 76 77 77 68 88 88 93 94 95 88 80 76 74 70 66 70 68 66 51 41 49 74 78 87 90 84 74 68 58 54 53 51 49 52 53 60
52 34 45 55 64 68 75 79 78 76 74 85 98 96 96 93 86 81 76 75 73 74 77 77 58 42 49 73 88 93 96 81 72 62 63 60 71 64 69 74 67 47 47
33 34 55 61 67 78 78 79 79 70 68 84 88 100 92 95 85 80 81 81 79 84 84 74 51 41 66 90 94 94 79 91 97 68 89 63 75 69 69 77 79 68 54
46 54 66 69 72 75 82 82 82 81 73 86 97 86 83 83 84 87 88 87 87 85 81 64 40 54 58 65 73 75 89 99 93 86 95 86 66 59 56 52 67 76 66
52 56 56 50 51 62 82 85 87 82 84 98 91 87 90 86 80 84 90 84 83 78 70 44 49 54 54 77 89 95 100 97 96 85 80 79 58 59 52 54 65 82 79
62 60 66 60 64 76 82 86 86 75 98 100 96 97 96 83 76 71 82 81 80 70 52 50 60 70 70 67 91 94 92 96 92 80 78 100 72 74 69 54 67 76 78
59 65 70 75 84 86 91 90 79 79 89 96 100 98 91 75 70 79 79 83 77 60 57 62 63 64 63 64 71 85 97 99 100 93 82 100 83 95 94 77 76 80 88

GFSMA_850_rhum_063.txt.gz
RH
80 82 79 82 79 83 85 84 85 84 80 67 52 47 44 45 53 57 58 55 50 45 46 57 61 68 70 69 67 64 60 52 41 53 41 48 73 72 74 78 81 76 81
82 79 80 80 80 83 85 81 59 42 36 34 26 22 20 22 25 24 20 18 17 40 48 70 86 84 84 78 72 71 64 57 53 46 36 30 31 27 33 46 53 59 76
73 72 75 79 83 74 45 39 36 34 26 21 18 16 18 20 22 22 20 16 28 37 70 82 80 83 75 92 94 93 91 80 58 51 43 34 27 22 22 23 24 27 38
63 68 76 74 45 41 40 42 38 30 20 18 17 20 26 27 29 30 39 52 59 70 84 80 72 72 73 74 82 90 95 84 81 67 51 44 32 26 23 22 16 18 24
63 64 47 42 42 44 45 44 34 24 23 25 27 31 29 28 37 37 44 49 53 69 78 78 68 68 69 72 82 88 86 96 93 83 60 53 45 37 33 28 21 18 19
43 42 45 47 49 49 47 37 31 32 30 32 36 42 38 40 40 40 42 33 44 45 44 47 50 54 57 64 66 77 71 73 78 92 85 60 55 46 36 25 16 20 28
48 50 51 55 57 52 45 40 39 37 37 43 46 46 46 48 56 52 57 54 44 51 51 50 53 58 60 58 64 76 81 84 85 84 91 98 93 84 68 84 53 47 63
55 53 61 63 57 53 50 47 42 40 44 48 56 57 59 52 52 59 67 70 62 64 68 62 59 61 64 62 60 58 63 79 78 78 79 83 86 86 84 83 87 88 88
53 59 68 59 55 54 56 54 48 52 55 60 63 63 66 63 72 58 66 68 68 62 74 71 67 61 61 62 61 57 54 52 69 74 76 83 84 83 83 83 82 82 82
69 74 62 57 57 56 57 57 56 60 64 65 58 56 66 76 81 76 72 77 71 67 75 80 77 70 64 60 48 42 45 50 50 56 85 83 79 78 78 77 79 85 78
79 72 63 64 58 57 60 58 61 64 64 58 54 58 62 69 76 83 88 86 85 72 56 85 86 72 65 58 50 47 46 53 51 58 83 78 77 74 87 82 74 78 92
80 76 69 60 65 82 67 62 61 54 39 33 36 42 51 60 80 90 88 86 85 94 70 80 80 77 71 64 57 50 53 56 54 54 58 76 75 71 73 71 74 73 73
78 80 60 78 88 65 61 58 42 26 23 25 35 44 52 72 86 84 82 80 83 87 99 87 90 81 75 65 60 53 54 59 60 58 59 59 72 75 75 73 73 73 74
77 72 81 80 63 60 49 36 29 24 25 39 55 67 74 77 81 85 94 89 87 99 100 95 85 82 77 73 64 64 63 64 64 65 65 64 64 63 74 83 79 77 76
84 84 60 55 52 44 40 38 33 30 44 56 62 67 70 54 80 94 94 88 100 92 96 96 94 90 89 83 73 69 64 61 62 62 62 65 67 73 86 84 80 81 79
78 52 51 49 45 43 42 34 39 38 55 61 68 75 71 49 60 82 95 93 94 96 98 90 89 78 70 61 50 40 37 34 33 35 46 60 61 58 71 89 89 88 88
63 53 46 44 44 37 33 46 41 47 62 73 76 75 60 57 64 76 87 87 87 83 81 77 72 68 59 48 42 36 33 33 38 46 55 56 66 85 87 83 87 86 85
48 45 45 44 32 39 48 46 51 61 73 79 77 69 67 71 71 83 89 92 89 84 75 72 68 61 51 45 39 36 41 50 62 64 70 89 72 69 69 68 67 66 62
45 45 25 40 44 44 52 59 65 74 81 79 75 70 78 84 81 83 91 91 82 75 75 71 69 65 55 40 36 42 52 61 70 79 81 74 68 64 61 59 60 59 56
28 28 45 47 41 44 57 65 73 82 81 80 65 73 90 96 95 94 96 86 85 79 76 76 75 69 50 38 43 57 52 63 55 56 58 64 69 69 61 58 58 49 47
46 56 59 35 34 48 59 72 82 80 82 78 75 74 83 84 92 97 95 92 82 82 83 85 80 65 48 41 57 58 64 58 69 66 69 66 77 68 69 73 84 85 83
68 43 28 31 42 51 57 66 79 85 84 82 81 76 82 94 93 88 90 86 88 90 91 87 78 66 43 52 55 57 80 86 96 81 88 67 70 61 60 55 57 56 71
27 25 35 44 46 46 48 53 77 84 86 84 75 92 95 85 82 88 91 92 95 95 91 88 77 51 48 56 67 69 78 96 96 89 94 77 67 57 53 48 47 55 65
26 34 40 42 41 42 53 66 78 87 89 84 81 100 98 94 94 93 92 92 97 95 90 82 60 50 57 66 69 81 99 95 84 78 81 86 71 70 62 60 58 50 64
34 39 37 36 37 42 69 84 93 93 88 76 84 99 98 99 94 82 78 92 94 84 82 62 56 60 68 69 69 69 68 80 80 80 73 95 75 76 72 57 66 65 76
41 42 39 41 45 42 58 90 97 94 78 72 87 97 99 98 97 90 84 89 86 79 72 64 66 69 73 76 73 76 72 90 93 92 94 94 79 90 90 64 78 75 79

GFSMA_850_rhum_069.txt.gz
RH
78 82 84 78 85 80 82 83 83 83 74 45 30 24 19 16 13 11 12 12 13 15 37 74 79 83 82 71 70 67 68 61 54 52 41 45 38 37 32 22 19 19 18
81 79 75 84 84 83 85 85 78 47 33 29 23 19 16 12 10 10 12 12 15 25 33 72 89 95 94 81 72 69 64 65 63 60 56 48 47 46 40 32 30 28 25
74 76 82 83 86 86 86 54 38 40 33 24 21 16 12 11 11 13 12 14 22 34 51 74 83 93 89 90 82 88 84 80 80 69 64 54 56 50 41 36 36 33 33
78 76 76 85 87 72 43 45 42 35 32 28 19 16 17 16 18 18 22 23 21 38 70 79 79 79 76 73 80 84 92 86 94 88 77 64 60 60 45 39 39 32 28
69 71 84 82 57 44 48 48 48 48 41 28 24 25 27 26 25 28 32 28 28 27 36 47 52 55 61 59 74 84 79 82 82 82 86 83 72 67 59 50 38 25 38
61 66 79 58 46 51 54 53 54 55 47 36 34 39 38 38 37 39 34 37 34 30 28 28 30 37 49 52 52 57 80 79 79 93 86 92 96 94 79 65 50 37 80
66 67 52 49 53 58 55 55 57 61 55 49 49 63 46 42 43 48 35 43 45 47 49 51 44 41 55 60 59 57 58 70 92 87 98 98 87 90 95 82 91 50 54
61 50 54 54 62 59 55 57 65 66 63 59 60 55 57 56 39 39 43 51 53 55 58 58 49 53 57 69 68 64 62 61 60 61 72 79 82 86 85 80 81 83 82
54 56 57 62 66 58 58 66 76 75 67 61 59 50 51 41 58 52 37 45 61 69 66 62 50 51 44 75 81 74 69 63 54 49 67 75 82 83 80 94 78 86 80
60 61 63 71 66 60 60 79 81 73 63 59 44 26 22 34 50 46 64 63 61 68 84 85 71 51 66 90 92 76 69 62 55 48 45 69 74 76 81 89 76 80 90
66 67 68 75 67 63 68 85 82 66 59 42 23 21 24 30 36 70 61 69 82 86 87 88 55 58 52 77 86 76 73 68 61 56 52 59 80 80 81 80 86 93 76
70 70 75 79 71 78 86 92 68 60 39 27 22 21 26 63 68 82 79 67 72 81 91 93 86 67 59 67 88 82 81 76 72 63 60 58 64 85 82 79 78 78 78
69 69 80 81 80 69 90 86 58 39 35 29 26 28 39 49 60 76 80 73 76 76 91 98 95 76 68 70 84 83 83 82 79 75 71 68 65 63 90 89 82 77 76
64 74 84 84 79 87 82 55 44 42 36 36 35 40 47 56 62 60 65 82 84 73 75 94 92 78 77 80 86 89 84 69 58 49 38 29 26 29 34 62 88 85 82
74 85 88 85 94 90 61 50 42 44 43 43 41 48 60 69 69 60 40 54 93 79 60 69 90 86 82 79 73 66 63 51 30 24 22 21 21 23 25 38 82 91 88
90 89 90 94 93 54 44 43 46 47 50 43 50 62 71 76 74 62 46 58 89 85 78 71 82 93 95 79 76 71 51 36 27 24 26 27 29 32 34 40 77 93 92
87 87 88 78 50 45 48 49 45 52 47 57 63 71 78 80 77 66 58 80 92 98 94 82 97 91 78 79 82 65 49 37 31 28 31 34 37 39 50 98 99 96 94
84 90 82 51 54 53 45 45 51 49 62 66 69 78 83 82 78 67 71 93 95 98 100 95 86 84 82 81 71 62 47 35 32 35 34 36 38 40 48 57 63 64 73
92 67 50 55 49 45 46 51 47 49 57 63 72 82 84 81 76 82 92 97 97 100 100 100 95 86 86 82 81 78 60 36 36 36 35 35 43 52 57 61 63 71 75
65 49 47 40 59 66 59 41 41 43 45 50 66 78 78 75 73 82 97 100 96 96 98 100 92 86 88 89 86 78 70 75 74 48 39 46 53 45 52 59 63 68 65
49 40 55 74 62 37 32 35 36 36 35 39 47 55 67 72 75 76 85 100 100 100 100 97 86 84 86 82 83 76 82 81 85 76 74 89 85 80 91 87 68 56 64
72 77 80 65 32 24 32 36 35 33 33 40 46 56 70 80 81 74 67 97 100 100 98 91 86 90 89 86 94 88 92 91 84 87 92 89 88 82 90 90 69 60 53
84 67 48 32 26 29 32 30 30 33 36 38 54 71 84 90 81 69 69 98 90 86 88 96 99 100 100 100 90 91 93 91 88 85 84 94 92 89 95 79 61 64 62
66 52 41 30 35 32 32 32 34 37 40 38 45 67 89 88 84 75 83 99 95 91 91 88 90 100 100 90 71 98 100 100 100 94 93 99 93 93 94 51 66 72 75
42 30 29 32 33 32 35 38 44 47 47 48 48 50 62 71 81 83 88 99 97 94 88 84 86 94 90 78 69 100 100 100 99 94 96 100 94 89 94 54 61 58 66
30 32 34 41 51 57 60 68 72 72 76 76 68 60 52 51 77 89 91 96 100 91 91 92 90 92 87 82 80 90 100 100 99 96 90 100 92 97 95 95 100 82 64

GFSMA_850_rhum_072.txt.gz
RH
71 70 76 81 80 83 85 84 84 82 63 33 28 25 21 18 13 35 60 12 10 14 36 60 74 79 73 67 65 68 79 61 54 51 51 49 44 45 44 38 34 32 29
78 83 78 82 87 86 85 85 75 46 35 32 28 24 19 14 15 18 54 55 16 18 35 55 86 93 94 79 72 71 76 73 68 66 61 54 51 52 49 45 41 40 37
74 72 77 80 85 84 85 72 39 40 36 35 34 27 26 20 23 15 37 57 62 41 32 55 79 84 92 92 86 94 97 95 84 78 72 65 62 59 57 48 40 39 30
74 72 79 82 85 85 65 42 43 44 47 47 46 44 30 25 21 24 36 36 45 42 53 42 60 72 76 77 85 88 86 84 96 84 78 70 68 66 62 56 50 44 32
73 72 77 81 86 61 44 46 50 53 56 52 48 50 32 48 43 46 51 47 52 44 37 52 28 32 40 46 52 56 82 82 83 93 94 88 96 91 79 73 65 53 52
73 67 77 83 62 45 49 52 54 56 60 59 56 56 67 57 55 57 56 52 57 59 54 56 56 47 49 32 40 50 55 84 87 94 99 97 97 98 99 93 76 64 55
70 69 77 68 47 50 54 53 56 63 71 68 69 62 61 71 68 60 59 58 57 60 66 66 66 55 52 61 55 42 53 65 84 86 79 88 91 94 96 98 91 63 62
69 73 69 51 50 55 56 54 60 73 75 76 68 63 48 45 61 62 61 59 64 67 60 65 73 72 70 61 61 60 58 61 59 58 61 60 61 78 90 92 89 84 96
74 69 54 52 53 60 59 56 67 78 74 81 75 58 38 32 34 41 58 65 66 71 66 68 71 75 73 70 73 74 75 66 71 66 59 77 80 81 82 83 80 85 84
67 57 57 57 61 64 60 60 71 78 76 71 70 67 63 54 36 33 35 48 60 69 70 71 68 72 73 78 78 80 77 81 77 69 63 55 74 84 82 80 83 85 98
65 60 62 64 66 68 63 65 83 82 78 68 50 48 49 52 56 60 58 52 49 49 54 61 68 73 73 80 78 77 82 80 76 78 72 67 59 84 87 81 77 78 81
71 65 68 68 69 72 66 78 87 85 68 48 54 51 48 47 48 52 50 46 45 42 46 61 68 69 70 76 79 68 70 81 81 79 81 79 74 68 83 93 90 87 86
78 72 70 71 74 75 76 86 94 70 48 63 61 53 61 64 63 60 58 56 49 44 49 58 66 68 69 73 72 75 81 82 82 83 71 62 52 45 44 58 92 94 89
89 89 78 82 81 78 90 89 80 57 70 59 66 68 64 68 66 65 60 55 57 53 47 46 51 65 68 69 73 82 69 80 75 58 53 37 24 20 19 19 20 41 87
97 89 87 83 82 84 90 84 58 75 67 72 70 80 77 68 71 72 69 62 58 60 49 42 45 59 70 72 78 86 82 78 69 44 26 21 20 20 21 23 25 41 90
90 85 84 85 88 90 81 46 62 75 74 72 76 79 78 72 74 75 71 68 63 61 59 53 49 52 69 76 72 77 80 78 56 38 21 20 22 24 26 29 35 74 98
83 91 90 90 96 84 47 50 73 71 74 75 78 82 78 79 76 74 71 68 66 64 61 55 56 55 78 85 74 76 77 73 64 53 48 22 26 28 30 32 34 43 42
99 90 92 99 76 55 57 65 67 66 73 78 76 79 80 77 78 77 73 71 67 65 64 67 70 64 81 84 81 82 76 67 62 57 56 26 29 32 32 33 34 39 44
90 100 98 67 54 55 60 75 76 75 78 75 74 76 76 76 76 73 71 67 64 63 63 73 76 71 78 86 79 74 68 64 61 59 56 46 52 43 36 34 38 46 50
99 86 89 60 48 50 75 76 72 70 71 71 74 76 77 78 76 74 71 68 66 67 73 83 92 92 84 76 76 65 60 56 53 56 61 66 70 72 70 69 76 71 57
81 91 63 40 62 78 71 65 62 66 68 67 70 78 82 83 84 68 70 73 71 75 90 98 97 92 73 62 64 60 60 61 60 66 66 66 68 68 69 70 74 81 90
87 56 61 89 80 67 52 28 31 35 61 64 67 69 70 75 88 87 83 79 72 90 97 97 92 89 74 64 69 70 67 64 62 66 69 69 70 71 70 69 73 74 62
72 79 86 56 58 69 43 30 30 31 48 61 64 66 67 64 75 88 90 92 93 80 97 99 96 90 89 91 87 77 67 63 64 65 74 76 77 77 77 71 81 82 71
80 79 74 73 67 61 29 31 34 40 60 70 72 74 76 76 75 79 83 84 88 90 96 92 95 84 86 90 88 80 77 83 88 83 74 79 80 79 79 78 80 82 75
74 66 62 65 68 69 68 47 59 68 86 85 82 81 79 80 81 82 96 100 97 98 94 91 86 87 88 83 85 94 94 96 94 79 73 76 79 75 77 80 88 96 80
47 65 66 71 62 54 73 63 62 72 72 92 95 92 89 95 93 93 85 96 96 100 99 98 100 88 82 94 90 84 99 97 92 83 74 83 77 76 81 83 90 85 92

GFSMA_850_rhum_075.txt.gz
RH
90 87 87 91 84 85 85 85 84 79 64 34 35 34 39 35 36 43 57 43 16 13 31 60 73 74 64 56 58 62 70 69 70 60 53 52 45 47 50 49 44 38 33
82 90 91 90 82 86 84 82 75 59 49 46 40 36 33 35 33 24 47 56 48 21 26 37 75 88 81 65 63 65 67 86 79 82 72 59 58 58 56 53 47 43 39
86 80 82 83 88 83 80 76 56 45 48 47 48 47 44 43 46 45 42 49 54 48 40 31 56 63 71 81 87 92 93 86 93 91 83 70 65 63 63 61 54 53 46
79 79 94 90 86 82 77 62 55 53 53 50 54 50 48 45 50 48 47 43 45 38 45 44 34 36 52 63 68 65 89 91 87 85 80 97 86 87 82 78 73 69 55
76 96 91 89 79 79 69 59 58 58 57 53 49 53 60 51 53 42 52 51 54 57 45 49 48 46 46 42 33 28 34 44 83 90 96 95 97 98 99 98 95 81 81
78 95 92 74 81 72 67 61 60 56 60 62 58 56 65 64 55 54 56 53 51 60 60 60 63 55 50 50 50 38 26 32 81 92 96 97 99 98 97 96 97 95 78
85 98 92 83 78 71 66 51 53 58 71 72 69 61 58 63 64 62 58 58 56 56 57 65 69 61 57 58 59 62 56 34 30 58 90 79 83 94 93 94 97 83 95
76 94 91 89 77 71 63 57 64 72 72 75 68 66 50 47 59 60 57 59 59 62 63 59 62 69 70 67 63 63 64 57 45 45 62 65 61 73 88 88 89 91 91
90 96 90 84 78 78 74 66 74 79 71 75 81 73 51 40 44 42 45 52 62 66 70 65 66 67 68 70 72 72 73 73 64 59 69 71 73 76 89 90 86 83 84
83 82 90 84 84 78 76 81 83 85 85 74 69 68 66 67 57 51 45 43 47 58 59 64 64 65 66 69 69 76 75 73 67 55 60 71 73 76 92 92 89 86 85
77 89 89 88 86 79 81 81 82 72 81 80 69 55 54 51 50 54 52 52 50 44 40 40 50 60 66 67 72 72 69 70 65 54 72 80 72 70 72 90 92 88 83
86 86 88 88 88 84 85 79 66 75 77 79 67 60 53 49 48 50 52 51 44 43 42 41 47 58 64 65 68 69 69 67 57 68 79 78 79 74 69 70 87 89 85
88 92 92 92 93 88 88 69 76 72 75 75 71 64 52 55 60 60 59 52 50 44 43 44 47 52 59 62 65 66 67 69 61 66 65 56 54 51 46 36 29 58 86
95 97 96 94 98 95 79 79 76 72 79 66 77 71 66 60 63 62 56 54 55 51 46 45 44 43 52 61 62 64 65 70 82 80 75 66 53 28 20 18 18 26 71
96 95 97 99 99 92 77 87 88 71 60 78 82 81 78 73 67 63 64 63 61 62 55 48 47 47 46 55 66 70 77 87 86 76 73 56 32 20 20 20 21 26 49
98 94 98 99 97 87 86 88 84 72 78 80 77 76 78 75 68 65 65 64 62 60 59 54 51 50 51 51 56 73 75 75 70 76 72 64 46 27 23 22 23 25 28
98 98 98 99 91 92 89 92 76 72 74 76 76 77 78 76 71 68 66 64 62 59 59 57 52 51 54 58 61 77 72 76 71 67 60 56 54 42 29 25 26 28 30
100 98 99 95 100 99 89 81 80 75 71 70 74 76 71 66 68 70 69 65 64 62 61 60 57 54 54 60 60 94 82 75 63 60 61 60 53 47 47 31 34 34 32
98 90 98 100 98 91 82 76 73 75 76 74 73 68 67 66 66 66 66 65 63 58 57 57 58 59 59 61 64 81 85 73 70 53 50 47 50 56 63 64 64 63 59
82 92 99 96 90 88 77 69 73 73 68 64 63 64 66 67 67 67 67 65 63 61 60 57 58 62 67 67 79 78 82 75 70 61 49 54 58 62 69 66 67 70 66
84 92 94 78 66 67 71 76 73 63 58 57 60 60 60 62 66 71 73 68 72 71 71 68 65 69 77 84 80 82 94 80 80 59 58 59 59 62 63 64 65 67 78
97 87 86 69 77 84 74 63 45 25 36 56 56 54 55 56 59 61 64 72 82 83 84 80 82 80 80 92 89 89 90 81 72 59 57 65 66 67 67 68 66 66 67
81 72 79 88 87 76 67 57 34 28 32 55 59 60 60 56 59 63 65 67 78 91 95 97 94 87 87 89 91 82 80 82 72 61 67 71 66 76 74 68 73 76 74
92 93 86 79 75 67 62 58 47 41 50 73 74 73 72 70 70 70 74 81 79 72 84 92 99 98 89 88 94 95 96 86 76 73 77 78 79 78 74 77 71 78 85
85 80 70 63 64 67 69 70 63 67 78 83 88 86 82 83 81 80 82 89 89 76 88 90 87 86 89 91 82 81 88 94 85 84 84 85 80 77 71 72 76 83 84
64 58 60 67 73 71 83 86 67 66 34 32 46 76 68 67 69 72 85 89 91 86 89 98 95 93 89 82 74 76 80 91 88 86 80 85 97 83 75 71 88 74 77

GFSMA_850_rhum_081.txt.gz
RH
44 35 43 46 57 64 71 70 68 71 74 72 33 37 39 38 36 38 41 36 35 22 24 37 30 39 33 32 34 39 46 81 77 80 77 74 70 69 72 64 66 65 66
37 36 39 54 61 74 75 72 74 76 67 38 40 42 40 40 37 36 35 34 38 35 29 28 28 29 44 42 50 59 80 91 82 99 91 78 85 89 83 83 84 84 82
38 34 54 59 75 80 79 78 74 62 42 42 43 43 43 44 43 38 31 36 39 38 32 35 37 36 34 36 44 46 47 60 81 96 88 95 89 88 90 93 97 93 87
87 73 65 73 84 83 79 78 75 63 47 46 48 48 48 49 48 47 38 36 37 37 36 39 40 43 43 45 42 39 34 27 36 54 92 92 96 87 90 94 92 90 90
68 74 77 83 83 82 84 81 77 50 49 51 52 48 46 51 51 47 42 44 45 43 50 52 49 49 53 55 53 49 44 36 31 44 88 90 92 97 94 98 93 98 98
63 79 85 88 86 87 83 81 68 53 56 52 53 50 55 59 60 57 49 46 49 51 54 55 58 59 58 57 59 51 48 52 46 43 36 38 43 65 54 75 92 93 96
78 89 86 80 85 83 77 73 57 58 59 58 56 57 63 67 67 64 59 45 46 54 56 56 56 62 61 64 65 60 59 62 83 74 59 32 24 30 51 92 92 92 90
82 85 81 75 85 80 77 71 58 57 60 60 61 58 59 57 60 67 58 49 51 58 56 49 49 60 62 62 64 69 67 64 55 57 60 54 38 35 80 92 91 89 88
77 77 82 86 85 77 73 71 64 59 64 68 71 66 63 56 59 55 46 54 56 54 52 51 52 50 51 51 64 66 67 65 62 59 56 50 47 41 40 90 91 89 90
74 76 80 80 79 80 74 73 69 61 75 73 74 71 67 70 61 54 52 52 57 54 56 56 56 57 56 55 57 60 58 56 56 56 58 55 47 45 39 52 91 91 89
74 79 84 83 91 88 78 74 70 62 74 79 74 70 73 70 60 58 55 49 50 50 53 48 45 44 43 50 51 50 52 56 58 56 60 61 60 55 41 46 58 90 90
70 74 81 87 97 93 85 76 73 67 68 76 77 74 76 60 57 57 52 51 52 51 54 55 50 47 44 43 44 48 54 53 61 64 63 64 63 62 54 49 48 67 76
73 73 77 91 95 94 86 80 77 76 78 78 71 75 72 64 60 54 53 56 60 61 61 50 48 46 40 46 49 53 58 60 61 62 65 66 64 67 63 61 50 53 36
71 70 77 90 93 93 88 83 81 83 79 79 74 73 68 79 84 64 55 60 64 65 62 54 49 43 42 47 48 49 51 54 56 60 60 61 68 74 72 68 65 61 52
71 74 81 95 94 93 90 90 94 93 88 85 78 82 85 80 67 64 62 67 69 67 64 59 58 56 61 58 50 46 50 53 53 56 58 65 73 74 72 67 66 61 47
82 78 90 99 99 94 96 99 98 98 93 94 94 92 80 82 73 70 70 75 73 69 67 66 66 67 66 65 62 60 57 56 56 58 69 78 80 81 75 66 63 49 48
95 94 92 95 95 97 92 90 95 97 88 88 88 85 88 81 77 75 74 76 74 72 70 68 67 66 67 68 66 66 67 67 72 80 80 82 87 92 67 65 54 47 55
96 98 100 97 97 99 85 96 98 90 87 88 91 86 80 76 74 77 79 74 70 70 73 74 74 73 72 69 70 68 67 67 82 84 68 62 74 85 66 66 48 54 61
98 99 100 100 99 99 100 100 90 93 89 94 85 82 80 77 77 77 73 68 68 69 70 71 74 74 75 73 69 70 65 62 61 61 61 65 84 76 63 55 57 55 66
100 96 94 99 100 100 99 93 92 88 86 77 82 78 77 75 70 64 58 58 63 65 66 65 63 62 62 63 67 71 67 69 60 57 80 91 90 85 80 70 60 66 68
95 99 100 99 90 89 94 93 84 73 79 82 76 74 70 64 56 45 58 58 56 57 59 61 66 71 72 72 74 75 90 74 66 60 70 94 91 74 68 61 64 69 70
100 100 94 88 90 98 96 80 68 75 78 74 78 70 52 19 19 31 43 55 67 73 74 79 82 86 86 90 96 91 98 96 87 67 79 78 77 69 66 64 66 68 59
100 95 94 94 96 86 88 78 79 78 78 77 62 34 20 22 31 48 62 70 74 77 81 85 85 84 90 96 99 98 83 95 80 72 97 92 82 70 71 65 57 65 81
97 95 91 90 81 87 92 87 87 80 68 54 39 36 44 50 52 53 38 24 20 17 23 25 30 32 47 59 74 87 82 94 91 87 87 85 70 69 63 60 67 79 76
99 87 83 82 82 84 85 80 72 63 55 52 54 56 52 30 15 13 8 8 8 9 21 41 59 58 62 65 88 96 93 98 96 92 92 90 62 59 62 64 67 79 84
82 91 92 90 86 81 73 68 62 59 63 56 40 20 15 11 6 7 11 17 18 17 44 56 68 65 65 66 64 65 75 100 96 97 72 76 58 66 79 72 72 71 72

GFSMA_850_rhum_087.txt.gz
RH
50 40 38 44 43 48 52 57 58 57 62 68 52 33 36 38 37 37 37 34 38 37 45 59 42 32 28 29 28 34 64 52 64 96 66 76 91 88 85 85 83 93 90
38 37 42 44 41 52 59 56 64 64 68 72 41 38 39 39 39 39 36 34 36 35 34 35 35 33 32 34 35 39 33 36 53 94 68 84 88 84 82 83 86 80 76
39 36 40 49 40 59 63 64 71 70 71 64 38 41 40 43 46 43 39 35 36 36 34 34 38 36 37 44 45 40 38 32 26 28 58 84 85 96 99 96 92 92 94
43 35 42 46 49 63 64 68 72 72 72 42 41 41 43 48 46 43 40 40 40 40 38 41 42 40 42 46 48 46 41 34 23 20 20 30 52 62 72 68 52 27 70
44 42 45 52 53 61 68 70 74 75 55 42 43 45 45 49 53 54 49 49 46 40 41 41 43 42 46 47 48 49 50 40 33 27 24 26 25 23 18 15 14 14 19
52 47 56 62 57 65 71 75 80 72 67 50 45 48 47 49 53 59 61 58 56 48 44 42 45 48 49 51 50 50 50 46 43 40 36 33 31 30 27 25 26 28 30
44 58 71 66 70 70 72 80 82 78 74 59 49 50 52 52 54 61 63 63 62 58 47 46 48 54 54 52 50 47 49 45 51 52 43 38 39 40 41 42 42 44 43
53 69 77 75 76 75 86 86 84 80 80 62 50 51 55 56 58 62 64 64 63 62 52 50 52 56 56 57 52 51 50 54 75 56 56 49 48 47 48 51 51 51 50
59 61 68 72 78 78 80 83 84 83 82 70 54 52 60 60 58 60 62 64 65 65 56 54 55 58 59 61 59 59 54 53 60 64 62 57 54 56 60 62 58 58 56
61 60 68 80 80 80 78 85 84 85 84 76 60 56 58 56 58 59 61 63 66 67 61 62 62 62 61 63 64 65 60 66 59 57 56 65 62 62 63 64 60 63 57
63 63 65 79 74 80 76 83 86 90 85 73 64 57 60 61 66 68 66 63 56 52 50 50 53 54 56 62 54 46 45 46 49 59 63 71 67 66 64 62 65 61 57
61 57 52 55 64 73 78 84 88 95 90 76 69 61 64 68 72 72 69 70 61 55 55 52 51 52 56 57 56 53 48 46 49 52 54 57 60 65 65 63 63 58 57
51 49 42 49 63 73 78 83 92 98 93 80 77 68 71 74 85 80 81 92 60 58 56 56 55 54 58 60 55 45 39 43 46 46 45 45 51 58 59 63 63 73 94
38 37 46 56 63 69 74 79 97 100 97 86 76 77 86 85 86 88 94 74 62 73 81 66 61 59 63 58 44 40 38 40 48 56 55 59 58 58 61 64 68 86 95
56 64 60 56 63 74 78 87 93 97 98 93 86 85 92 92 89 86 94 70 89 86 83 78 66 61 56 51 42 42 50 54 62 66 68 68 66 65 66 70 73 76 78
66 69 71 75 69 71 85 86 88 98 99 95 88 92 95 92 85 88 84 89 95 90 78 72 67 66 58 56 52 52 58 63 69 65 62 70 70 69 71 74 74 79 75
77 74 76 78 81 89 95 86 96 98 99 95 89 90 96 94 89 92 96 96 84 76 76 76 78 76 72 64 55 63 62 59 61 70 65 70 65 66 68 70 68 56 51
85 81 82 86 97 100 91 91 100 99 98 98 97 95 94 94 97 99 91 80 79 78 78 82 81 75 71 64 52 45 45 53 58 61 62 63 70 72 73 75 65 53 63
100 100 99 90 88 99 98 99 98 92 88 86 96 100 100 100 100 93 87 80 80 79 81 78 74 68 56 46 47 48 53 56 59 66 72 78 82 81 80 82 68 47 59
86 62 70 76 82 100 98 93 95 98 100 99 100 100 100 99 94 93 84 82 80 79 76 70 62 52 50 48 50 53 56 52 58 66 72 84 86 85 68 84 71 59 76
91 76 70 74 82 100 99 95 89 96 100 100 100 100 100 95 96 90 83 80 76 70 65 56 44 42 40 46 52 56 53 43 26 16 15 26 85 68 91 75 60 61 95
100 99 78 94 95 100 100 100 94 96 100 100 100 100 100 97 86 81 75 70 67 52 32 30 38 49 44 47 40 25 20 24 30 33 35 43 70 77 81 75 61 74 77
100 96 92 99 100 99 100 100 100 100 100 100 99 98 98 89 77 79 62 63 46 38 43 49 47 29 19 14 18 22 34 48 62 64 95 74 60 77 82 96 78 82 87
95 100 100 100 100 100 100 100 99 96 97 99 92 99 99 91 91 71 58 52 53 43 25 16 12 9 12 19 33 51 72 84 84 93 100 97 60 70 67 94 96 95 85
100 100 100 100 100 100 100 100 100 100 96 98 100 96 98 98 82 64 54 29 16 10 7 7 7 10 20 42 61 84 96 100 97 73 87 100 77 70 60 83 92 89 70
100 100 100 100 100 100 100 100 100 99 100 100 99 98 83 72 54 27 17 9 6 6 8 11 13 15 23 28 41 63 84 100 100 100 90 95 93 93 100 85 77 66 58